STARLINK-34285, 65101

Orbit data source: Space-Track

STARLINK-34285, 65101 is a payload satellite owned by SpaceX/Seattle (US) in LEO that was launched on Mon, 04 Aug 2025 UTC via an FALCON 9 launch vehicle from the Air Force Eastern Test Range (AFETR). Payload-class satellites include a variety of spacecraft equipped with specific instruments for various scientific and technological missions. These include communications satellites like Starlink; space stations such as the ISS; scientific satellites like the Hubble; Earth observation satellites from companies like Planet Labs, Umbra, and HawkEye 360; GPS; miniature CubeSats for education and research; and military/defense satellites.

Loading next visibility...
Identifier
65101, 2025-167Z
Orbit
LEO
Country
Flag of USUS
Related business
Manufacturer
SpaceX/Seattle
Mission
Operational Commercial Communications
Bus & Motor
STARLINK V2MO, Unknown motor
Mass
575 kg wet, ~530 kg dry
Launch date (UTC)
2025-08-04 (9 months ago)
Launch vehicle
FALCON 9
Launch site
Air Force Eastern Test Range (AFETR)
Object type
Payload
Rocket body
Debris
Shape & HBR
Box + 2 Pan, 17.7 m
Radar Cross Section
36.964 m², Large (>1 m²)

Expand to show TLE details & history
Last TLE update: 13 hours ago

TLE from 13 hours ago
0 STARLINK-34285
1 65101U 25167Z   26127.22792667  .00011115  00000-0  38696-3 0  9997
2 65101  53.1604 114.6532 0001379  77.4532 282.6623 15.30190605 42447
Epoch: 2026-05-07T05:28Z
TLE epoch observation values (Epoch: 2026-05-07T05:28:12.864Z)
Latitude
-0.00001°
Longitude
167.52251°
Altitude
475.936 km
Speed
7.629 km/s
True Right ascension
07h 38m 36s
True Declination
0° 00' 00"
Sunlit
Object was in daylight at epoch
Visualization orbit readout
Latitude
Unknown
Longitude
Unknown
Altitude
Unknown
Speed
Unknown
Apparent Right ascension
Unknown
Apparent Declination
Unknown
Sunlit
N/A
Visualization observer readout
Local Sidereal Time
02:55:51
Azimuth
Unknown
Elevation
Unknown
Doppler factor
Unknown
Orbital elements
Apogee altitude
476.445 km
Perigee altitude
474.554 km
Semi-major axis
6,853.636 km
Eccentricity
0.00014
Inclination
53.1604°
RAAN
114.6532°
Arg. of periapsis
77.4532°
True anomaly
282.64688°
Mean anomaly
282.6623°
Eccentric anomaly
282.65459°
Mean motion
3.82527 °/min
Orbital period
94.11 mins
BSTAR
0.00038696
Loading maneuver chart data...
Computing Atmospheric mass density...
Loading historical data...
Loading historical data...
Loading historical data...
Loading historical data...
Loading historical data...
Loading historical data...
Loading historical data...

Documentation

Showing up to 5 results
|